Location: Bruxelles
(50.8503°N, 4.3517°E)
Time: 07:12:37
(UTC+02:00)

N. Korean satellite - Visible Passes

Search period start: 20 September 2019 00:00
Search period end: 30 September 2019 00:00
Orbit: 455 x 509 km, 97.2° (Epoch: 18 September)

Date Brightness Start Highest point End Pass type
(mag) Time Alt. Az. Time Alt. Az. Time Alt. Az.
21 Sep 10.2 06:35:08 10° ENE 06:36:18 11° E 06:37:27 10° ESE visible
24 Sep 9.8 06:51:46 10° NE 06:54:10 18° E 06:56:33 10° SE visible
28 Sep 9.9 06:44:29 10° NE 06:46:33 15° E 06:48:36 10° SE visible
29 Sep 10.7 20:08:21 10° W 20:08:57 10° W 20:09:32 10° WNW visible
